Regional Weather Roundup
Issued by NWS

Home | Current Version | Previous Version | Graphics & Text | Print | Product List | Glossary On
Versions: 1 2 3 4 5 6 7 8 9 10 11 12 13 14 15 16 17 18 19 20 21 22 23 24 25 26 27 28 29 30 31 32 33 34 35 36 37 38 39 40 41 42 43 44 45 46 47 48 49 50
000
ASUS43 KLMK 280602
RWRKY
KENTUCKY REGIONAL WEATHER ROUNDUP
NATIONAL WEATHER SERVICE LOUISVILLE KY
100 AM EST TUE FEB 28 2017

NOTE "FAIR" INDICATES FEW OR NO CLOUDS BELOW 12,000 FEET
WITH NO SIGNIFICANT WEATHER AND/OR OBSTRUCTIONS TO VISIBILITY.

KYZ001>023-026-027-061>063-070>075-280700-
WESTERN AND SOUTH CENTRAL KENTUCKY

CITY           SKY/WX    TMP DP  RH WIND       PRES   REMARKS
PADUCAH        MOCLDY    55  46  71 SE9       30.05F
HENDERSON      CLOUDY    54  43  66 SE12      30.07F
OWENSBORO      CLOUDY    53  46  77 S10       30.11F
HOPKINSVILLE   CLOUDY    53  47  79 SE10      30.10F
BOWLING GREEN  PTCLDY    49  44  83 SE6       30.15F
GLASGOW        NOT AVBL
$$

KYZ024-025-028>034-038-045-046-053-280700-
NORTH CENTRAL KENTUCKY

CITY           SKY/WX    TMP DP  RH WIND       PRES   REMARKS
LOUISVILLE/SDF CLOUDY    50  40  68 SE9       30.13F
LOUISVILLE/LOU CLOUDY    50  41  71 S5        30.15F
FORT KNOX        N/A    N/A N/A N/A MISG        N/A
$$

KYZ035>037-039>044-047>052-055>060-089>105-280700-
NORTHEAST KENTUCKY

CITY           SKY/WX    TMP DP  RH WIND       PRES   REMARKS
LEXINGTON      CLEAR     45  37  73 S9        30.19F
COVINGTON      CLOUDY    45  40  82 S10       30.15F
FRANKFORT      CLOUDY    46  37  71 SE6       30.17F
$$

KYZ054-064>069-076>088-106>120-280700-
SOUTHEAST KENTUCKY

CITY           SKY/WX    TMP DP  RH WIND       PRES   REMARKS
JACKSON        CLEAR     48  34  58 CALM      30.22F
LONDON         CLEAR     39  33  79 CALM      30.22F
SOMERSET       NOT AVBL
MIDDLESBORO    CLEAR     38  35  90 CALM      30.27F
MONTICELLO     CLEAR     48  44  86 E7        30.22F
$$




USA.gov is the U.S. government's official web portal to all federal, state and local government web resources and services.